Change the Weather History Date:

Sunday, December 30, 2012

  Actual Average (KFAR) Record (KFAR)
Temperature  
Mean Temperature 12 °F 10 °F  
Max Temperature 19 °F 19 °F 42 °F (1929)
Min Temperature 6 °F 2 °F -29 °F (1976)
Degree Days  
Heating Degree Days 52 55  
Month to date heating degree days 1524  
Since 1 July heating degree days 3486  
Cooling Degree Days 0 0  
Month to date cooling degree days 0  
Year to date cooling degree days 551  
Moisture  
Dew Point 10 °F    
Average Humidity 92    
Maximum Humidity 100    
Minimum Humidity 79    
Precipitation  
Precipitation 0.00 in 0.02 in 0.63 in (1972)
Month to date precipitation 0.80  
Year to date precipitation 22.58  
Snow  
Snow 0.00 in 0.40 in 8.80 in (2008)
Month to date snowfall 10.8  
Since 1 July snowfall 19.4  
Snow Depth -    
Sea Level Pressure  
Sea Level Pressure 30.00 in    
Wind  
Wind Speed 9 mph (South)    
Max Wind Speed 18 mph    
Max Gust Speed 24 mph    
Visibility 9 miles    
Events Snow    
T = Trace of Precipitation, MM = Missing Value Source: NWS Daily Summary

Daily Weather History Graph

Daily Weather History Graph

Search for Another Location

Airport or City:

Trip Planner

Search our weather history database for the weather conditions in past years. The results will help you decide how hot, cold, wet, or windy it might be!

Date:

Astronomy

Dec. 30, 2012 Rise Set
Actual Time 8:11 AM CST 4:47 PM CST
Civil Twilight 7:36 AM CST 5:22 PM CST
Nautical Twilight 6:58 AM CST 6:01 PM CST
Astronomical Twilight 6:21 AM CST 6:38 PM CST
Moon 7:30 PM CST (12/30) 9:12 AM CST (12/30)
Length of Visible Light 9h 45m
Length of Day
8h 35m
Waning Gibbous, 95% of the Moon is Illuminated
Dec 30
Waning Gibbous
Jan 4
Last Quarter
Jan 11
New
Jan 18
First Quarter
Jan 26
Full

Hourly Weather History & Observations

Time (CST) Temp. Windchill Dew Point Humidity Pressure Visibility Wind Dir Wind Speed Gust Speed Precip Events Conditions
12:15 AM 6.8 °F -6.9 °F 6.8 °F 100% 30.09 in 10.0 mi SSE 9.2 mph - N/A   Overcast
12:55 AM 8.6 °F -2.6 °F 6.8 °F 92% 30.08 in 10.0 mi South 6.9 mph - N/A   Overcast
1:15 AM 8.6 °F -4.7 °F 6.8 °F 92% 30.08 in 10.0 mi South 9.2 mph - N/A   Overcast
1:34 AM 8.6 °F -4.7 °F 6.8 °F 92% 30.07 in 10.0 mi South 9.2 mph - N/A   Overcast
1:55 AM 8.6 °F -5.5 °F 6.8 °F 92% 30.07 in 10.0 mi South 10.4 mph - N/A   Overcast
2:15 AM 8.6 °F -5.5 °F 6.8 °F 92% 30.07 in 10.0 mi South 10.4 mph - N/A   Overcast
2:34 AM 8.6 °F -7.0 °F 6.8 °F 92% 30.07 in 10.0 mi South 12.7 mph - N/A   Overcast
2:55 AM 8.6 °F -5.5 °F 6.8 °F 92% 30.07 in 10.0 mi South 10.4 mph - N/A   Overcast
3:14 AM 8.6 °F -5.5 °F 6.8 °F 92% 30.07 in 10.0 mi South 10.4 mph - N/A   Overcast
3:35 AM 8.6 °F -7.0 °F 8.6 °F 100% 30.06 in 10.0 mi South 12.7 mph - N/A   Overcast
3:55 AM 8.6 °F -5.5 °F 8.6 °F 100% 30.05 in 10.0 mi South 10.4 mph - N/A   Overcast
4:14 AM 8.6 °F -5.5 °F 8.6 °F 100% 30.05 in 1.8 mi South 10.4 mph - N/A Snow Light Snow
4:35 AM 8.6 °F -3.7 °F 8.6 °F 100% 30.05 in 1.0 mi South 8.1 mph - N/A Snow Light Snow
4:55 AM 8.6 °F -6.3 °F 8.6 °F 100% 30.03 in 1.5 mi South 11.5 mph - N/A Snow Light Snow
5:14 AM 8.6 °F -4.7 °F 8.6 °F 100% 30.04 in 1.2 mi South 9.2 mph - N/A Snow Light Snow
5:35 AM 8.6 °F -5.5 °F 8.6 °F 100% 30.03 in 1.5 mi South 10.4 mph - N/A Snow Light Snow
6:14 AM 8.6 °F -6.3 °F 8.6 °F 100% 30.03 in 3.0 mi South 11.5 mph - N/A Snow Light Snow
6:35 AM 8.6 °F -6.3 °F 6.8 °F 92% 30.03 in 10.0 mi South 11.5 mph - N/A   Scattered Clouds
6:55 AM 6.8 °F -7.8 °F 6.8 °F 100% 30.02 in 10.0 mi South 10.4 mph - N/A   Clear
7:15 AM 6.8 °F -8.6 °F 5.0 °F 92% 30.01 in 10.0 mi South 11.5 mph - N/A   Clear
7:35 AM 6.8 °F -6.9 °F 5.0 °F 92% 30.00 in 10.0 mi South 9.2 mph - N/A   Clear
7:54 AM 6.8 °F -8.6 °F 5.0 °F 92% 29.99 in 10.0 mi SSE 11.5 mph - N/A   Clear
8:15 AM 8.6 °F -5.5 °F 6.8 °F 92% 29.99 in 10.0 mi South 10.4 mph - N/A   Clear
8:35 AM 8.6 °F -5.5 °F 6.8 °F 92% 29.99 in 10.0 mi South 10.4 mph - N/A   Clear
8:54 AM 8.6 °F -2.6 °F 6.8 °F 92% 30.00 in 10.0 mi South 6.9 mph - N/A   Clear
9:15 AM 8.6 °F -2.6 °F 6.8 °F 92% 30.00 in 10.0 mi South 6.9 mph - N/A   Clear
9:35 AM 8.6 °F -2.6 °F 6.8 °F 92% 30.00 in 10.0 mi South 6.9 mph - N/A   Clear
9:54 AM 8.6 °F -7.0 °F 6.8 °F 92% 29.99 in 10.0 mi South 12.7 mph - N/A   Clear
10:15 AM 10.4 °F -3.3 °F 8.6 °F 92% 29.98 in 10.0 mi South 10.4 mph - N/A   Clear
10:35 AM 10.4 °F -3.3 °F 8.6 °F 92% 29.99 in 10.0 mi South 10.4 mph - N/A   Clear
10:54 AM 12.2 °F 2.9 °F 8.6 °F 85% 29.98 in 10.0 mi South 5.8 mph - N/A   Clear
11:15 AM 12.2 °F -1.0 °F 10.4 °F 92% 29.97 in 10.0 mi SSW 10.4 mph - N/A   Clear
11:34 AM 12.2 °F - 10.4 °F 92% 29.95 in 10.0 mi Calm Calm - N/A   Clear
11:55 AM 12.2 °F -0.2 °F 10.4 °F 92% 29.94 in 10.0 mi SSW 9.2 mph - N/A   Clear
12:14 PM 14.0 °F 2.0 °F 10.4 °F 86% 29.93 in 10.0 mi South 9.2 mph - N/A   Clear
12:35 PM 14.0 °F 2.0 °F 10.4 °F 86% 29.91 in 10.0 mi South 9.2 mph - N/A   Clear
12:55 PM 12.2 °F -0.2 °F 10.4 °F 92% 29.90 in 10.0 mi South 9.2 mph - N/A   Clear
1:14 PM 12.2 °F -1.8 °F 10.4 °F 92% 29.88 in 10.0 mi SSE 11.5 mph - N/A   Clear
1:35 PM 14.0 °F 2.9 °F 10.4 °F 86% 29.88 in 10.0 mi South 8.1 mph - N/A   Clear
1:55 PM 14.0 °F 6.5 °F 10.4 °F 86% 29.88 in 10.0 mi South 4.6 mph - N/A   Clear
2:14 PM 15.8 °F 7.2 °F 10.4 °F 79% 29.88 in 10.0 mi SSW 5.8 mph - N/A   Clear
2:35 PM 14.0 °F 2.9 °F 10.4 °F 86% 29.88 in 10.0 mi SSW 8.1 mph - N/A   Clear
2:54 PM 14.0 °F 6.5 °F 10.4 °F 86% 29.89 in 10.0 mi South 4.6 mph - N/A   Clear
3:15 PM 12.2 °F 4.3 °F 10.4 °F 92% 29.89 in 10.0 mi SSW 4.6 mph - N/A   Clear
3:35 PM 14.0 °F - 10.4 °F 86% 29.90 in 10.0 mi Calm Calm - N/A   Clear
3:54 PM 12.2 °F - 10.4 °F 92% 29.90 in 10.0 mi Calm Calm - N/A   Clear
4:15 PM 14.0 °F 8.2 °F 10.4 °F 86% 29.91 in 10.0 mi SSW 3.5 mph - N/A   Clear
4:40 PM 12.2 °F - 10.4 °F 92% 29.92 in 10.0 mi Calm Calm - N/A   Clear
4:59 PM 12.2 °F - 10.4 °F 92% 29.92 in 10.0 mi Calm Calm - N/A   Mostly Cloudy
5:15 PM 12.2 °F 6.1 °F 10.4 °F 92% 29.93 in 7.0 mi WSW 3.5 mph - N/A   Mostly Cloudy
5:35 PM 12.2 °F - 10.4 °F 92% 29.93 in 10.0 mi Calm Calm - N/A   Overcast
5:54 PM 12.2 °F 6.1 °F 10.4 °F 92% 29.94 in 10.0 mi WNW 3.5 mph - N/A   Overcast
6:15 PM 14.0 °F 8.2 °F 12.2 °F 93% 29.95 in 10.0 mi NNW 3.5 mph - N/A   Overcast
6:35 PM 15.8 °F - 14.0 °F 93% 29.96 in 10.0 mi Calm Calm - N/A   Overcast
6:54 PM 17.6 °F 10.7 °F 15.8 °F 93% 29.97 in 10.0 mi NNW 4.6 mph - N/A   Overcast
7:15 PM 19.4 °F 6.0 °F 17.6 °F 93% 29.99 in 10.0 mi North 13.8 mph - N/A   Overcast
7:34 PM 19.4 °F 5.5 °F 17.6 °F 93% 30.00 in 10.0 mi North 15.0 mph - N/A   Overcast
7:55 PM 17.6 °F 3.2 °F 15.8 °F 93% 30.01 in 10.0 mi North 15.0 mph - N/A   Overcast
8:15 PM 17.6 °F 2.2 °F 15.8 °F 93% 30.03 in 10.0 mi NNW 17.3 mph - N/A   Overcast
8:34 PM 17.6 °F 2.7 °F 15.8 °F 93% 30.03 in 10.0 mi North 16.1 mph - N/A   Overcast
8:55 PM 17.6 °F 3.7 °F 14.0 °F 86% 30.04 in 10.0 mi North 13.8 mph - N/A Snow Light Snow
9:15 PM 17.6 °F 5.0 °F 14.0 °F 86% 30.05 in 7.0 mi North 11.5 mph - N/A Snow Light Snow
9:55 PM 17.6 °F 6.4 °F 15.8 °F 93% 30.05 in 10.0 mi NNW 9.2 mph - N/A Snow Light Snow
10:15 PM 17.6 °F 4.3 °F 15.8 °F 93% 30.05 in 10.0 mi NNW 12.7 mph - N/A   Overcast
10:34 PM 17.6 °F 3.2 °F 14.0 °F 86% 30.06 in 10.0 mi NNW 15.0 mph - N/A   Overcast
10:55 PM 17.6 °F 2.2 °F 12.2 °F 79% 30.07 in 10.0 mi NNW 17.3 mph - N/A   Overcast
11:15 PM 17.6 °F 2.2 °F 12.2 °F 79% 30.08 in 10.0 mi NNW 17.3 mph 23.0 mph N/A   Overcast
11:35 PM 12.2 °F -5.3 °F 10.4 °F 92% 30.10 in 5.0 mi North 18.4 mph 24.2 mph N/A Snow Light Snow
11:55 PM 12.2 °F -5.3 °F 8.6 °F 85% 30.11 in 10.0 mi NNE 18.4 mph - N/A   Overcast